Quantcast
Home
Market Movers
Company Pages

3 Months Gainers

Symbol Name Last Percent 3-Months Percent Time
KBIOKaloBios Pharmaceuticals23.59-5.09%+1002.34%12/16/2015
NCTYTHE9 Limited2.76-1.43%+206.67%01/15/2016
LINCLincoln Educational Services Corporation2.66+7.26%+168.69%01/15/2016
ERIIEnergy Recovery, Inc.6.37-4.5%+157.89%01/15/2016
ANADANADIGICS, Inc.0.67-2%+137.93%01/15/2016
HARTHarvard Apparatus Regenerative Technology Inc. 1.63-14.21%+126.39%01/15/2016
WTWWeight Watchers International Inc.13.76-4.44%+99.42%01/15/2016
OCATOcata Therapeutics Inc.8.42-0.12%+94.01%01/15/2016
HMYHarmony Gold Mining Company Limited1.61+8.05%+93.93%01/15/2016
HTCHHutchinson Technology Incorporated3.5+0.14%+89.95%15:45:09
FIVNFive97.38-1.86%+84.5%01/15/2016
CLCDCoLucid Pharmaceuticals6.88-1.43%+75.96%01/15/2016
PCRXPacira Pharmaceuticals Inc. 67.32+2.78%+73.55%01/15/2016
EFUTeFuture Information Technology Inc. 7-2.64%+71.99%01/15/2016
LOJNLoJack Corporation4.92-0.61%+71.43%01/15/2016
GMCRKeurig Green Mountain Inc. 90.02-0.1%+70.59%01/15/2016
SGISilicon Graphics International Corp 6.9-0.86%+66.27%01/15/2016
RCONRecon Technology Ltd. 1.42-7.19%+63.41%01/15/2016
ADMSAdamas Pharmaceuticals25.01-2.11%+63.25%01/15/2016
PACBPacific Biosciences of California Inc. 12.85+1.98%+61.03%01/15/2016
ATAIATA Inc.5.55-1.77%+60.87%01/15/2016
ANFIAmira Nature Foods Ltd8.5+1.55%+60.68%01/15/2016
ONEHigher One Holdings Inc.3.39+3.04%+60.66%01/15/2016
RIVRRiver Valley Bancorp.34.13+0.83%+55.77%01/14/2016
CRAYCray Inc.33.06-2.62%+55.72%01/15/2016
AFFXAffymetrix Inc. 13.91+0.43%+55.42%01/15/2016
ROVIRovi Corporation17.42-0.12%+55.26%01/15/2016
SQNSSequans Communications S.A.1.78-4.81%+53.45%01/15/2016
ARGAirgas Inc.138.3-0.2%+49.05%01/15/2016
NVRONevro65.45-1.46%+48.14%01/15/2016
BLTBlount International Inc.9.29-0.85%+46.99%01/15/2016
PBYPep Boys Manny Moe & Jack18.46+0.05%+45.93%01/15/2016
NLSTNetlist Inc. 0.7-2.24%+45.83%01/15/2016
IESCIntegrated Electrical Services Inc. 10.94-1.53%+44.9%01/15/2016
SCAISurgical Care Affiliates Inc. 44.12+3.08%+44.7%01/15/2016
OPHTOphthotech Corporation 63.86-0.75%+43.34%01/15/2016
MEETMeetMe Inc.3.31-5.7%+43.29%01/15/2016
OCLROclaro, Inc. 3.55-2.47%+42.57%01/15/2016
AMICAmerican Independence Corp.14.5+0.07%+42.3%01/15/2016
MTSNMattson Technology, Inc.3.41-1.16%+42.08%01/15/2016
ABACAoxin Tianli Group Inc.0.79-6.94%+41.25%01/15/2016
AMRKA-Mark Precious Metals Inc.18.43+10.76%+40.69%01/15/2016
ARTXArotech Corporation2.05-6.82%+40.41%01/15/2016
YECOYulong Eco-Materials Ltd3.8-9.52%+40.22%01/15/2016
LOCKLifeLock Inc.13.02-1.21%+39.1%01/15/2016
XLRNAcceleron Pharma33.69-3.55%+38.81%01/15/2016
VSCPVirtualScopics Inc. 2.79+1.46%+38.81%01/15/2016
MDASMedAssets Inc. 31.16-0.1%+38.43%01/15/2016
PNYPiedmont Natural Gas Co Inc.58+0.1%+38.23%01/15/2016
CASMCAS Medical Systems Inc. 1.68-3.45%+36.59%01/15/2016
DYAXDyax Corp.38.09-0.11%+35.99%01/15/2016
SPROSmartPros Ltd.3.56+0.85%+34.87%12/22/2015
HPYHeartland Payment Systems Inc.90.18-0.02%+34.56%01/15/2016
GHDXGenomic Health, Inc.29.64-4.91%+34.54%01/15/2016
MNRKMonarch Financial Holdings Inc. 16.94-1.4%+34.34%01/15/2016
GAIGlobal - Tech Advanced Innovations Inc. 8.12-0.47%+34.03%01/15/2016
VTLVital Therapies Inc. 8.67+0.35%+33.18%01/15/2016
CALIChina Auto Logistics Inc. 1.07-2.35%+32.75%01/15/2016
YOKUYouku Inc.27.09-0.33%+32.6%01/15/2016
ECOMChannelAdvisor Corporation12.57-0.63%+32.59%01/15/2016
QSIIQuality Systems Inc. 16.57-2.01%+32.24%01/15/2016
TSYSTeleCommunication Systems, Inc.4.96-0.1%+31.43%01/15/2016
CTIBCTI Industries Corporation4.81-6.24%+31.42%01/14/2016
ISISIsis Pharmaceuticals, Inc.57.56-0.48%+31%12/21/2015
QIHUQIHOO 360 Technology Co. Ltd.69.92-0.46%+30.4%01/15/2016
MITKMitek Systems Inc. 4.18-3.02%+30.22%01/15/2016
TGSTransportadora de Gas del Sur5.62+2%+30.09%01/15/2016
MNOVMediciNova Inc. 3.72-1.59%+29.62%01/15/2016
KANGiKang Healthcare Group Inc. 20-1.62%+29.45%01/15/2016
MGPIMGP Ingredients Inc. 21.33-3.13%+29.35%01/15/2016
ACORAcorda Therapeutics, Inc.39.9+1.66%+29.08%01/15/2016
HIIQHealth Insurance Innovations6.13-9.99%+29.05%01/15/2016
NKTRNektar Therapeutics14.01+1.82%+29.01%01/15/2016
BMABanco Macro S.A.57.87-2.15%+28.77%01/15/2016
SIENSientra Inc. 7.48-4.47%+28.3%01/15/2016
SPNCThe Spectranetics Corporation14.32-4.53%+27.63%01/15/2016
CRVLCorVel Corp.42.55-1.23%+27.62%01/15/2016
EDNEmpresa Distribuidora y Comercializadora Norte S.A.16.11-1.95%+27.35%01/15/2016
ANFAbercrombie & Fitch25.55-2.03%+27.24%01/15/2016
UNTYUnity Bancorp Inc. 12.8-1.01%+27.11%01/15/2016
FXCMFXCM Inc.12.95-5.61%+26.59%01/15/2016
MDSYModSys International Ltd2.2-3.32%+26.44%01/15/2016
AXONAxovant Sciences Ltd16.81-4.38%+26.3%01/15/2016
HSIIHeidrick & Struggles International Inc. 26.81-0.37%+25.93%01/15/2016
BAKBraskem S.A.12.24-2%+25.67%01/15/2016
IDSYI.D. Systems Inc. 4.2-6.67%+25.37%01/15/2016
VCRAVocera Communications Inc.14.05-3.04%+25.33%01/15/2016
DMNDDiamond Foods Inc. 39.41-0.71%+25.27%01/15/2016
BRKRBruker Corporation22.39-0.89%+25.01%01/15/2016
AGROAdecoagro S.A.11.35-3.81%+25%01/15/2016
ALRMAlarm.com Holdings Inc. 16.01+0.44%+24.88%01/15/2016
CBPOChina Biologic Products, Inc. 125.83-0.91%+24.82%01/15/2016
CYTKCytokinetics, Incorporated8.72-0.8%+24.75%01/15/2016
VSECVSE Corporation54.63-4.16%+24.7%01/15/2016
BDBDSmart Balance Inc.11.03+0.36%+24.63%01/15/2016
STMPStamps.com Inc.91.59-5.64%+24.51%01/15/2016
EARSAuris Medical4.4-11.29%+24.47%01/15/2016
EDUNew Oriental Education & Technology Group Inc.27.89-1.69%+24.4%01/15/2016
OHRPOhr Pharmaceutical Inc.3.71-3.39%+23.67%01/15/2016
JRJCChina Finance Online Co. Limited5.29-4.17%+23.6%01/15/2016
DRDDRDGOLD Limited2.27+9.66%+23.37%01/15/2016
SPKESpark Energy Inc. 20.87+2%+23.35%01/15/2016
AWAYHomeAway Inc. 35.77+0.59%+23.34%12/14/2015
LDOSLeidos Holdings Inc.54.98-1.51%+23.3%01/15/2016
IPCIIntelliPharmaCeutics International Inc.2.28-6.94%+23.24%01/15/2016
JRVRJames River Group Holdings Ltd. 33.12-0.27%+23.17%01/15/2016
EGHT8x8 Inc. 10.94-1.88%+22.92%01/15/2016
KLACKLA - Tencor Corporation 64.55-3.17%+22.6%01/15/2016
AMSCAmerican Superconductor Corporation6.39+9.98%+22.41%01/15/2016
ORBKOrbotech Ltd.19.51-2.4%+22.32%01/15/2016
KINGKing Digital Entertainment plc17.88-0.11%+22.3%01/15/2016
IRCInland Real Estate Corporation10.59+0.1%+22.15%01/15/2016
FUNCFirst United Corporation9.81-1.61%+22.09%01/15/2016
LMATLeMaitre Vascular Inc. 15.12-3.2%+21.94%01/15/2016
AVAVAeroVironment, Inc.26.04-0.23%+21.74%01/15/2016
OSUROraSure Technologies, Inc.5.75+0.35%+21.56%01/15/2016
JAGXJaguar Animal Health Inc. 3.06-9.91%+21.55%01/15/2016
CLBHCarolina Bank Holdings Inc.17.76-0.56%+21.48%01/15/2016
BCOMB Communications Ltd. 24.9+1.63%+21.34%15:15:03
RADRite Aid Corporation7.64-0.52%+21.08%01/15/2016
STKLSunOpta Inc. 6.51+0.46%+21%01/15/2016
FCSFairchild Semiconductor International Inc.20.38-0.88%+20.88%01/15/2016
NXTMNxStage Medical, Inc.18.87-0.84%+20.73%01/15/2016
FLXSFlexsteel Industries Inc. 40.85-2.23%+20.64%01/15/2016
DWADreamworks Animation SKG Inc. 25.49-2.3%+20.63%01/15/2016
ISRGIntuitive Surgical Inc. 557.25+0.27%+20.54%01/15/2016
ICADicad inc.3.82-2.55%+20.5%01/15/2016
MMYTMakeMyTrip Limited20.22-3.67%+20.5%01/15/2016
PLABPhotronics Inc. 11.65-1.94%+20.48%01/15/2016
FPRXFive Prime Therapeutics Inc. 33.62+0.06%+20.37%01/15/2016
ADTNADTRAN Inc. 17.39-1.02%+20.26%01/15/2016
BXLTBaxalta Incorporated40.13-2.15%+20.26%01/15/2016
SWISolarWinds Inc.58.96-0.17%+20.25%01/15/2016
CTCTConstant Contact, Inc.29.8+3.37%+20.06%01/15/2016
BNKC1 Financial23.99+0.08%+19.95%01/15/2016
DLTRDollar Tree Inc. 75.3-0.53%+19.9%01/15/2016
CCGCampus Crest Communities Inc.6.77-0.59%+19.82%01/15/2016
DHRMDehaier Medical Systems Ltd1.78+0.57%+19.47%01/15/2016
NEONeoGenomics Inc. 7.03-0.85%+19.15%01/15/2016
LYTSLSI Industries Inc.10.66-2.38%+19.11%01/15/2016
CDNACareDx5.4-0.19%+18.94%01/15/2016
MFRIMFRI Inc. 6.41-0.93%+18.92%01/15/2016
STRLSterling Construction Company Inc. 5.04+1%+18.87%01/15/2016
SQISciQuest Inc. 12.29-2.54%+18.74%01/15/2016
SYTSyngenta AG75.75+2.27%+18.41%01/15/2016
CAFD8point3 Energy Partners LP15.33-4.25%+18.2%01/15/2016
AVGRAvinger Inc.18.41+0.6%+18.16%01/15/2016
OFIXOrthofix International N.V.39.23-1.16%+17.98%01/15/2016
EDEEmpire District Electric Co.27.69-1.88%+17.98%01/15/2016
RDCMRadcom Ltd.12.41-3.35%+17.74%01/15/2016
MGLNMagellan Health Inc. 57.5-2.32%+17.64%01/15/2016
WLFCWillis Lease Finance Corporation18.88-1.72%+17.63%01/15/2016
AGTCApplied Genetic Technologies15.55+5.64%+17.62%01/15/2016
CHLNChina Housing & Land Development Inc. 2.89-3.99%+17.48%01/15/2016
WRLDWorld Acceptance Corporation34.43+0.94%+17.47%01/15/2016
ICCCImmuCell Corporation7.78-0.26%+17.35%01/15/2016
HRLHormel Foods Corporation76.12-3.45%+17.31%01/15/2016
TSNTyson Foods Inc.51.49-2.68%+17.21%01/15/2016
HSKAHeska Corporation33.99-3.79%+17.05%01/15/2016
XRSTAL Education Group41.82-2.38%+16.98%01/15/2016
INTXIntersections Inc. 2.35-6.75%+16.92%01/15/2016
FSLRFirst Solar, Inc.61.32-0.75%+16.84%01/15/2016
FSBFranklin Financial Network27.43-2%+16.82%01/15/2016
TAOMTaomee Holdings Ltd.3.55+0.28%+16.78%01/15/2016
ODCOil Dri Corporation of America34.46-3.37%+16.73%01/15/2016
MYLMylan N.V. 49.71-1.95%+16.34%01/15/2016
GVAGranite Construction Inc.38.71+4.79%+16.21%01/15/2016
GGALGrupo Financiero Galicia S.A.24.52-4.67%+16.21%01/15/2016
SYNCSynchronica1.65-2.94%+16.2%01/15/2016
NTESNetEase Inc. 154.99-5.22%+16.19%01/15/2016
OPOFOld Point Financial Corporation18.47+0.93%+16.17%01/15/2016
PZEPetrobras Argentina S.A.5.77+4.53%+16.1%01/15/2016
CYNOCynosure Inc. 37.88-4.8%+16.09%01/15/2016
NETENet Element Inc.0.16-8.36%+15.77%01/15/2016
RPRealPage Inc. 20.74-4.29%+15.74%01/15/2016
WBWeibo Corporation 15.88-5.42%+15.66%01/15/2016
STRSStratus Properties, Inc.19.65+0.15%+15.66%01/15/2016
EBIXEbix Inc. 30.59+0.07%+15.56%01/15/2016
CETVCentral European Media Enterprises Ltd.2.38-7.03%+15.53%01/15/2016
IRIXIRIDEX Corporation9.4+1.51%+15.34%01/15/2016
PROVProvident Financial Holdings Inc. 18.8-0.53%+15.06%01/15/2016
QUNRQunar Caym Isl Shs -B- Sponsored American Deposit Share Repr 3 Shs -B-44.69-0.45%+14.97%01/15/2016
OLEDCambridge Display Technology, Inc.45.16-9.59%+14.94%01/15/2016
SAASinContact Inc. 8.39-4.01%+14.93%01/15/2016
UTEKUltratech, Inc.18.33-2.55%+14.85%01/15/2016
NTWKNetSol Technologies Inc.6.66-0.6%+14.83%01/15/2016
SAFMSanderson Farms Inc. 74.66-7.82%+14.83%01/15/2016
BGFVBig 5 Sporting Goods Corporation11.62+4.22%+14.71%01/15/2016
EPAYBottomline Technologies, Inc.29.48+0.55%+14.57%01/15/2016
ITCITC Holdings Corp.38.73-2.79%+14.48%01/15/2016
WFBIWashingtonFirst Bankshares Inc.21.35-3.35%+14.48%01/15/2016
ADMPAdamis Pharmaceuticals Corp4.43+1.37%+14.47%01/15/2016
EGRXEagle Pharmaceuticals76.94-2.2%+14.46%01/15/2016
ENZEnzo Biochem Inc.4.52-0.22%+14.43%01/15/2016
LANCLancaster Colony Corporation114.72-0.43%+14.42%01/15/2016
HMINHome Inns & Hotels Management Inc.33.62-0.59%+14.35%01/15/2016
PAMPampa Energa S.A.19.47-3.52%+14.33%01/15/2016
HIIHuntington Ingalls Industries Inc.123.65-1.05%+14.17%01/15/2016
RGSRegis Corporation14.29-0.63%+14.14%01/15/2016
MATMattel Inc. 25.69-2.32%+14.03%01/15/2016
Symbol Name Last Percent 3-Months Percent Time